Weather History for Park Rapids, MN

Change the Weather History Date:

Friday, May 10, 2013

  Actual Average Record
Temperature  
Mean Temperature 47 °F -  
Max Temperature 64 °F 67 °F 86 °F (1987)
Min Temperature 30 °F 40 °F 20 °F (1981)
Degree Days  
Heating Degree Days 18    
Moisture  
Dew Point 29 °F    
Average Humidity 52    
Maximum Humidity 85    
Minimum Humidity 27    
Precipitation  
Precipitation 0.00 in - - ()
Sea Level Pressure  
Sea Level Pressure 30.08 in    
Wind  
Wind Speed 8 mph (SW)    
Max Wind Speed 24 mph    
Max Gust Speed 30 mph    
Visibility 10 miles    
Events      
Averages and records for this station are not official NWS values.
T = Trace of Precipitation, MM = Missing Value Source: NWS Daily Summary

Daily Weather History Graph

Daily Weather History Graph

Search for Another Location

Airport:

Trip Planner

Search our weather history database for the weather conditions in past years. The results will help you decide how hot, cold, wet, or windy it might be!

Date:

Astronomy

May. 10, 2013 Rise Set
Actual Time 5:51 AM CDT 8:42 PM CDT
Civil Twilight 5:16 AM CDT 9:18 PM CDT
Nautical Twilight 4:31 AM CDT 10:03 PM CDT
Astronomical Twilight 3:38 AM CDT 10:57 PM CDT
Moon 6:15 AM CDT (5/10) 9:34 PM CDT (5/10)
Length of Visible Light 16h 02m
Length of Day
14h 51m
New Moon, 0% of the Moon is Illuminated
May 10
New Moon
May 17
First Quarter
May 24
Full
May 31
Last Quarter
Jun 8
New

Hourly Weather History & Observations

Time (CDT) Temp. Windchill Dew Point Humidity Pressure Visibility Wind Dir Wind Speed Gust Speed Precip Events Conditions
12:53 AM 42.8 °F 38.0 °F 35.6 °F 76% 30.18 in 10.0 mi ESE 8.1 mph - N/A   Clear
1:53 AM 39.9 °F 36.7 °F 30.0 °F 68% 30.22 in 10.0 mi ESE 4.6 mph - N/A   Clear
2:53 AM 37.9 °F 35.5 °F 27.0 °F 65% 30.21 in 10.0 mi SE 3.5 mph - N/A   Clear
3:53 AM 34.0 °F - 27.0 °F 75% 30.22 in 10.0 mi Calm Calm - N/A   Clear
4:53 AM 30.9 °F - 26.1 °F 82% 30.21 in 10.0 mi Calm Calm - N/A   Clear
5:53 AM 30.0 °F - 25.0 °F 82% 30.20 in 10.0 mi Calm Calm - N/A   Clear
6:53 AM 32.0 °F - 28.0 °F 85% 30.19 in 10.0 mi Calm Calm - N/A   Clear
7:53 AM 39.0 °F 32.8 °F 25.0 °F 57% 30.19 in 10.0 mi SE 9.2 mph - N/A   Clear
8:53 AM 42.1 °F 36.1 °F 24.1 °F 49% 30.18 in 10.0 mi SE 10.4 mph - N/A   Clear
9:53 AM 45.0 °F 40.1 °F 25.0 °F 46% 30.16 in 10.0 mi South 9.2 mph - N/A   Clear
10:53 AM 50.0 °F - 24.1 °F 36% 30.13 in 10.0 mi SSE 8.1 mph - N/A   Clear
11:53 AM 53.6 °F - 28.4 °F 38% 30.08 in 10.0 mi SSW 5.8 mph - N/A   Clear
12:53 PM 57.9 °F - 30.0 °F 35% 30.07 in 10.0 mi Variable 6.9 mph - N/A   Clear
1:53 PM 61.0 °F - 30.0 °F 31% 30.04 in 10.0 mi SSW 13.8 mph 18.4 mph N/A   Clear
2:53 PM 62.1 °F - 28.0 °F 28% 30.01 in 10.0 mi SW 12.7 mph - N/A   Clear
3:53 PM 63.0 °F - 28.9 °F 28% 29.97 in 10.0 mi WSW 8.1 mph 20.7 mph N/A   Mostly Cloudy
4:53 PM 62.1 °F - 28.9 °F 29% 29.94 in 10.0 mi SW 12.7 mph - N/A   Mostly Cloudy
5:53 PM 64.0 °F - 28.9 °F 27% 29.91 in 10.0 mi SW 10.4 mph 20.7 mph N/A   Mostly Cloudy
6:53 PM 60.1 °F - 34.0 °F 38% 29.90 in 10.0 mi SW 9.2 mph - N/A   Overcast
7:53 PM 57.0 °F - 35.1 °F 44% 29.93 in 10.0 mi North 19.6 mph 28.8 mph N/A   Overcast
8:00 PM 55.4 °F - 35.6 °F 47% 29.91 in 10.0 mi NNW 24.2 mph 29.9 mph N/A   Overcast
8:53 PM 52.0 °F - 36.0 °F 54% 29.96 in 10.0 mi NNW 18.4 mph 27.6 mph N/A   Mostly Cloudy
9:53 PM 48.9 °F - 34.0 °F 56% 30.01 in 10.0 mi NNW 18.4 mph 26.5 mph N/A   Clear
10:53 PM 45.0 °F 36.6 °F 30.9 °F 58% 30.05 in 10.0 mi NNW 21.9 mph 28.8 mph N/A   Partly Cloudy
11:53 PM 42.1 °F 35.7 °F 30.0 °F 62% 30.06 in 10.0 mi NNW 11.5 mph - N/A   Clear